Location: *
(51.2167°N, 10.0667°E)
Time: 07:19:12
(UTC+00:00)

Cosmos 2237 Rocket - Pass Details

Date: 12 December 2019
Orbit: 836 x 849 km, 71.0° (Epoch: 18 January)

Event Time Altitude Azimuth Distance (km) Brightness Sun altitude
Rises 17:02:32 0° 214° (SW) 3,402 6.2 -16.2°
Reaches altitude 10° 17:04:59 10° 217° (SW) 2,470 5.4 -16.5°
Maximum altitude 17:10:39 73° 302° (WNW) 888 2.4 -17.4°
Enters shadow 17:15:15 16° 26° (NNE) 2,071 3.9 -18.1°
